This demonstration page uses our WeatherBlox Daily Observations layout. Learn more.

Left ArrowRight Arrow

38.89511, -77.03637

Hourly Observations for March 17, 2021

Temp ( °F °C ) Dew Point ( °F °C ) Humidity (%) Winds ( mph kmh ) Pressure ( in mb ) Visibility ( mi km ) Precip ( " mm )
12:10 am 00:10 Cloudy with Mist and Fog 42 5.6 39 3.9 89 89 Calm 30.14 1021 5 8.0467 0 0
12:34 am 00:34 Cloudy with Mist and Fog 42 5.6 39 3.9 89 89 ESE 3 6 30.13 1020 5 8.0467 0 0
12:52 am 00:52 Cloudy with Mist and Fog 42 5.6 39 3.9 89 89 ESE 5 7 30.12 1020 5 8.0467 0 0
1:04 am 01:04 Cloudy with Light Rain 42 5.6 40 4.4 92 92 E 5 7 30.13 1020 5 8.0467 0.001 0.001
1:18 am 01:18 Cloudy with Light Rain 42 5.6 39 3.9 89 89 ESE 5 7 30.12 1020 5 8.0467 0.001 0.001
1:49 am 01:49 Cloudy 43 6 39 4 87 87 ENE 5 7 30.12 1020 7 11.26538 0.001 0.001
1:52 am 01:52 Cloudy 43 6.1 39 3.9 86 86 E 6 9 30.11 1020 7 11.26538 0.001 0.001
2:05 am 02:05 Cloudy 43 6.1 39 3.9 86 86 ENE 3 6 30.12 1020 7 11.26538 0 0
2:52 am 02:52 Cloudy 43 6.1 39 3.9 86 86 NE 6 9 30.12 1020 7 11.26538 0 0
3:52 am 03:52 Cloudy 43 6.1 40 4.4 89 89 NE 7 11 30.11 1020 10 16.0934 0 0
4:30 am 04:30 Cloudy 43 6.1 40 4.4 89 89 ENE 6 9 30.11 1020 10 16.0934 0 0
4:52 am 04:52 Cloudy 43 6.1 40 4.4 89 89 ENE 7 11 30.11 1020 9 14.48406 0 0
5:13 am 05:13 Cloudy with Mist and Fog 43 6.1 40 4.4 89 89 NNE 7 11 30.12 1020 4 6.43736 0 0
5:52 am 05:52 Cloudy with Mist and Fog 43 6.1 40 4.4 89 89 NNE 7 11 30.13 1020 5 8.0467 0 0
6:52 am 06:52 Cloudy with Mist and Fog 42 5.6 40 4.4 92 92 NE 7 11 30.14 1021 4 6.43736 0 0
7:12 am 07:12 Cloudy with Drizzle 42 5.6 40 4.4 92 92 NE 8 13 30.15 1021 2.5 4.02335 0.001 0.001
7:52 am 07:52 Cloudy with Drizzle 42 5.6 40 4.4 92 92 NE 7 11 30.15 1021 2.5 4.02335 0.001 0.001
8:52 am 08:52 Cloudy with Drizzle 43 6.1 40 4.4 89 89 NNE 6 9 30.17 1022 4 6.43736 0.001 0.001
9:08 am 09:08 Cloudy with Mist and Fog 44 6.7 40 4.4 85 85 NNE 3 6 30.18 1022 6 9.65604 0.001 0.001
9:17 am 09:17 Cloudy with Mist and Fog 44 6.7 40 4.4 85 85 NE 5 7 30.18 1022 6 9.65604 0.001 0.001
9:24 am 09:24 Cloudy with Mist and Fog 44 6.7 40 4.4 85 85 NNE 6 9 30.18 1022 6 9.65604 0.001 0.001
9:33 am 09:33 Cloudy with Mist and Fog 45 7.2 41 5 86 86 NE 5 7 30.18 1022 6 9.65604 0.001 0.001
9:52 am 09:52 Cloudy with Haze 45 7.2 40 4.4 83 83 ENE 3 6 30.18 1022 6 9.65604 0.001 0.001
10:52 am 10:52 Mostly Cloudy 48 8.9 40 4.4 74 74 Calm 30.17 1022 9 14.48406 0 0
11:52 am 11:52 Cloudy 49 9.4 40 4.4 71 71 ENE 3 6 30.17 1022 10 16.0934 0 0
12:52 pm 12:52 Cloudy 49 9.4 40 4.4 71 71 E 5 7 30.18 1022 10 16.0934 0 0
1:52 pm 13:52 Cloudy 49 9.4 41 5 74 74 SSE 5 7 30.14 1021 10 16.0934 0 0
2:52 pm 14:52 Cloudy 49 9.4 41 5 74 74 E 5 7 30.13 1020 10 16.0934 0 0
3:52 pm 15:52 Cloudy 49 9.4 42 5.6 77 77 SSE 5 7 30.13 1020 10 16.0934 0 0
4:52 pm 16:52 Cloudy 50 10 42 5.6 74 74 SSE 3 6 30.14 1021 10 16.0934 0 0
5:52 pm 17:52 Cloudy 50 10 42 5.6 74 74 SSE 5 7 30.13 1020 10 16.0934 0 0
6:52 pm 18:52 Cloudy 50 10 42 5.6 74 74 SE 6 9 30.11 1020 10 16.0934 0 0
7:52 pm 19:52 Cloudy 50 10 43 6.1 77 77 E 5 7 30.11 1020 10 16.0934 0 0
8:52 pm 20:52 Cloudy 50 10 42 5.6 74 74 SE 3 6 30.11 1020 10 16.0934 0 0
9:52 pm 21:52 Cloudy 50 10 42 5.6 74 74 SE 6 9 30.13 1020 10 16.0934 0 0
10:52 pm 22:52 Cloudy 50 10 43 6.1 77 77 ESE 5 7 30.11 1020 10 16.0934 0 0
11:52 pm 23:52 Cloudy 49 9.4 43 6.1 80 80 SSE 5 7 30.1 1019 10 16.0934 0 0

Powered by AerisWeather